User: anonymous   Login
Location: Unspecified
(0.0000°N, 0.0000°E)
Time: 18:53:23
(UTC+00:00)
Language:

UKube-1 - Orbit

View from above orbital plane
View from above orbital plane
View from above satellite
View from above satellite

Ground track
Ground track

The orbit data is extracted from the following two-line orbital elements,

1 40074U 14037F   17084.78900399 +.00000435 +00000-0 +60151-4 0  9994
2 40074 098.3372 196.0123 0003878 338.2033 021.9028 14.83413544146818
Epoch (UTC): 25 March 2017 18:56:09
Eccentricity: 0.0003878
inclination: 98.3372°
perigee height: 616 km
apogee height: 621 km
right ascension of ascending node: 196.0123°
argument of perigee: 338.2033°
revolutions per day: 14.83413544
mean anomaly at epoch: 21.9028°
orbit number at epoch: 14681

The dashed part of the orbit path shows where the satellite is in the earth's shadow,  

DLR